This is the latest recevied weather packets stored in our database for station/object KD9JJA. If no packets are shown the sender has not sent any weather packets the latest 1 day(s).
| Time | Temp. | Humidity | Pressure | Rain* | Wind** | Luminosity | Snow |
|---|---|---|---|---|---|---|---|
| 1778046120 | 8.89° C | 99% | 1011.3 hPa | 0 mm | 0 m/s | 0 W/m² | - |
| 1778045818 | 8.89° C | 99% | 1011.6 hPa | 0 mm | 0 m/s | 0 W/m² | - |
| 1778045522 | 8.89° C | 99% | 1011.3 hPa | 0 mm | 0 m/s | 0 W/m² | - |
| 1778045214 | 8.89° C | 99% | 1011.4 hPa | 0 mm | 0 m/s | 0 W/m² | - |
| 1778044912 | 8.89° C | 99% | 1011.1 hPa | 0 mm | 0 m/s | 0 W/m² | - |
| 1778044609 | 8.89° C | 99% | 1011.5 hPa | 0 mm | 0 m/s | 0 W/m² | - |
| 1778044305 | 8.89° C | 99% | 1011.1 hPa | 0 mm | 0 m/s | 0 W/m² | - |
| 1778044004 | 8.89° C | 99% | 1011.2 hPa | 0 mm | 0 m/s | 0 W/m² | - |
| 1778043700 | 8.89° C | 99% | 1011.2 hPa | 0 mm | 0 m/s | 0 W/m² | - |
| 1778043397 | 8.89° C | 99% | 1011.1 hPa | 0 mm | 0 m/s | 0 W/m² | - |
| 1778043093 | 8.89° C | 99% | 1010.9 hPa | 1.78 mm | 0 m/s | 0 W/m² | - |
| 1778042791 | 8.89° C | 99% | 1010.8 hPa | 3.56 mm | 0 m/s | 0 W/m² | - |
| 1778042488 | 9.44° C | 99% | 1011.2 hPa | 3.05 mm | 0 m/s | 0 W/m² | - |
| 1778042185 | 9.44° C | 99% | 1011.1 hPa | 6.1 mm | 0 m/s | 0 W/m² | - |
| 1778041883 | 9.44° C | 99% | 1011.4 hPa | 6.1 mm | 0.45 m/s, 254° | 0 W/m² | - |
| 1778041582 | 9.44° C | 99% | 1011.1 hPa | 4.83 mm | 0 m/s | 0 W/m² | - |
| 1778041280 | 8.89° C | 99% | 1010.6 hPa | 1.78 mm | 0 m/s | 0 W/m² | - |
| 1778040978 | 9.44° C | 99% | 1010.2 hPa | 1.27 mm | 0 m/s | 0 W/m² | - |
| 1778040674 | 9.44° C | 99% | 1009.8 hPa | 3.05 mm | 0 m/s | 0 W/m² | - |
| 1778040372 | 9.44° C | 99% | 1009.9 hPa | 4.83 mm | 0 m/s | 0 W/m² | - |
| 1778040069 | 8.89° C | 99% | 1010.3 hPa | 7.87 mm | 0 m/s | 0 W/m² | - |
| 1778039766 | 8.89° C | 99% | 1010.6 hPa | 7.87 mm | 0 m/s | 0 W/m² | - |
| 1778039462 | 8.89° C | 99% | 1010.9 hPa | 8.89 mm | 0 m/s | 0 W/m² | - |
| 1778039160 | 8.89° C | 99% | 1011.3 hPa | 8.89 mm | 0 m/s | 0 W/m² | - |
| 1778038856 | 9.44° C | 99% | 1011 hPa | 7.87 mm | 0 m/s | 0 W/m² | - |
* Rain latest hour (hover to see other rain measurements)
** Current wind speed in m/s (hover to see current wind gust speed)